{"data":{"norad_id":67334,"epoch":"2026-09-19T07:13:09.729984Z","epoch_age_seconds":178946,"freshness":"STALE","line1":"1 67334U 26003A   26262.30080706  .00011590  00000+0  42989-3 0  9996","line2":"2 67334  42.9998 213.7038 0000991 284.9555  75.1187 15.27591139 38437","mean_motion":15.27591139,"eccentricity":9.91e-5,"inclination_deg":42.9998,"raan_deg":213.7038,"arg_perigee_deg":284.9555,"mean_anomaly_deg":75.1187,"bstar":0.00042989,"rev_number":3843,"period_min":94.266061332528,"perigee_km":482.33580183236,"apogee_km":483.69568230584,"semimajor_km":6861.1527420691,"source":"CELESTRAK","updated_at":"2026-09-20T09:00:43.510200Z"}}